Location: Mahannah Oil Field
(37.4664°N, 96.6003°W)
Time: 02:10:31
(UTC+00:00)

Tiros 1 despin weight - Pass Details

Date: 24 January 2021
Orbit: 593 x 642 km, 48.2° (Epoch: 25 February)

Event Time Altitude Azimuth Distance (km) Brightness Sun altitude
Rises 00:48:10 0° 304° (NW) 2,857 ? -13.4°
Reaches altitude 10° 00:50:50 10° 318° (NW) 1,944 ? -13.9°
Maximum altitude 00:54:30 24° 13° (NNE) 1,240 ? -14.6°
Enters shadow 00:56:01 20° 44° (NE) 1,383 ? -14.9°
Drops below altitude 10° 00:58:07 10° 69° (ENE) 1,926 - -15.3°
Sets 01:00:45 0° 83° (E) 2,823 - -15.8°
